MB7UUE Weather Reports


time (UTC)temp
C
wind
direction
speed
KPH
gust
KPH
rain 1hr
cm
rain 24hr
cm
rain mn
cm
humidity
%
barometer
mb
20260510112522 12 18 14.5 29.0 0.00 0.00 0.00 63 1017.4
20260510110622 12 347 9.7 29.0 0.00 0.00 0.00 63 1017.5
20260510104723 12 335 8.0 29.0 0.00 0.00 0.00 63 1017.5
20260510102823 12 0 12.9 29.0 0.00 0.00 0.00 63 1017.4
20260510100922 12 16 8.0 29.0 0.00 0.00 0.00 63 1017.4
20260510095023 12 23 14.5 29.0 0.00 0.00 0.00 64 1017.4
20260510093122 12 349 4.8 29.0 0.00 0.00 0.00 66 1017.4
20260510091222 12 0 20.9 29.0 0.00 0.00 0.00 65 1017.5
20260510085323 12 354 4.8 29.0 0.00 0.00 0.00 65 1017.6
20260510083423 12 41 9.7 29.0 0.00 0.00 0.00 67 1017.9
20260510081522 12 4 9.7 29.0 0.00 0.00 0.00 68 1017.9
20260510075623 12 50 11.3 29.0 0.00 0.00 0.00 69 1017.9
20260510073723 11 4 0.0 29.0 0.00 0.00 0.00 72 1017.9
20260510071823 11 8 8.0 29.0 0.00 0.00 0.00 73 1017.9
20260510065924 11 349 11.3 27.4 0.00 0.00 0.00 75 1017.9
20260510064023 11 0 3.2 27.4 0.00 0.00 0.00 76 1017.9
20260510063654 11 353 1.6 27.4 0.00 0.00 0.00 78 1017.9
20260510061755 10 0 8.0 27.4 0.00 0.00 0.00 79 1017.8
20260510055855 10 2 3.2 20.9 0.00 0.00 0.00 81 1017.6
20260510053954 10 348 4.8 20.9 0.00 0.00 0.00 82 1017.5
20260510052054 9 6 11.3 20.9 0.00 0.00 0.00 83 1017.5
20260510050154 9 359 12.9 20.9 0.00 0.00 0.00 83 1017.5
20260510044254 9 0 12.9 20.9 0.00 0.00 0.00 84 1017.5
20260510042355 9 356 8.0 20.9 0.00 0.00 0.00 84 1017.5
20260510040456 9 337 8.0 20.9 0.00 0.00 0.00 85 1017.6
20260510034554 9 337 8.0 20.9 0.00 0.00 0.00 85 1017.7
20260510032655 9 337 9.7 20.9 0.00 0.00 0.00 85 1017.8
20260510030756 9 323 8.0 20.9 0.00 0.00 0.00 85 1018.0
20260510024856 9 353 9.7 20.9 0.00 0.00 0.00 83 1017.9
20260510022955 9 4 14.5 20.9 0.00 0.00 0.00 83 1017.6
20260510021055 9 338 9.7 19.3 0.00 0.00 0.00 82 1018.0
20260510015155 9 6 0.0 9.7 0.00 0.00 0.00 76 1018.1
20260510013254 10 321 0.0 0.0 0.00 0.00 0.00 76 1018.0
20260510011356 10 343 0.0 0.0 0.00 0.00 0.00 76 1017.9
20260510005455 10 350 0.0 0.0 0.00 0.00 0.00 75 1017.7
20260510003555 10 337 0.0 0.0 0.00 0.00 0.00 74 1017.8
20260510001654 11 344 0.0 0.0 0.00 0.00 0.00 71 1017.9
20260509235754 11 343 0.0 0.0 0.00 0.00 0.00 66 1018.1
20260509233855 11 354 0.0 0.0 0.00 0.00 0.00 66 1018.0
20260509231953 11 9 0.0 0.0 0.00 0.00 0.00 66 1018.1
20260509230054 11 130 0.0 0.0 0.00 0.00 0.00 64 1018.1
20260509224155 11 125 0.0 22.5 0.00 0.00 0.00 63 1017.9
20260509222253 12 130 0.0 22.5 0.00 0.00 0.00 63 1018.0
20260509220354 12 130 0.0 22.5 0.00 0.00 0.00 61 1018.0
20260509214453 12 133 0.0 22.5 0.00 0.00 0.00 59 1017.8
20260509212553 13 151 0.0 22.5 0.00 0.00 0.00 57 1017.6
20260509210653 13 83 0.0 22.5 0.00 0.00 0.00 55 1017.4
20260509204754 13 114 0.0 22.5 0.00 0.00 0.00 53 1017.5
20260509202853 13 146 0.0 22.5 0.00 0.00 0.00 49 1017.4
20260509200954 14 99 0.0 22.5 0.00 0.00 0.00 47 1017.2
20260509195055 15 175 0.0 22.5 0.00 0.00 0.00 45 1017.1
20260509193155 15 335 0.0 22.5 0.00 0.00 0.00 43 1016.9
20260509191255 15 129 0.0 22.5 0.00 0.00 0.00 40 1017.0
20260509185353 16 170 3.2 22.5 0.00 0.00 0.00 37 1016.8
20260509183454 16 44 0.0 22.5 0.00 0.00 0.00 36 1016.8
20260509181554 16 158 4.8 22.5 0.00 0.00 0.00 32 1016.7
20260509175654 17 104 8.0 22.5 0.00 0.00 0.00 33 1016.5
20260509173755 17 165 3.2 22.5 0.00 0.00 0.00 36 1016.5
20260509171855 17 198 9.7 22.5 0.00 0.00 0.00 35 1016.6
20260509165954 18 181 12.9 22.5 0.00 0.00 0.00 34 1016.6
20260509164054 18 61 4.8 22.5 0.00 0.00 0.00 36 1016.7
20260509162155 18 191 16.1 22.5 0.00 0.00 0.00 36 1016.8
20260509160254 18 156 9.7 22.5 0.00 0.00 0.00 36 1017.0
20260509154355 18 170 9.7 22.5 0.00 0.00 0.00 37 1017.0
20260509152455 19 182 14.5 22.5 0.00 0.00 0.00 34 1017.0
20260509150553 19 73 3.2 22.5 0.00 0.00 0.00 34 1016.8
20260509150502 19 73 3.2 22.5 0.00 0.00 0.00 34 1016.8
20260509144601 19 167 9.7 22.5 0.00 0.00 0.00 34 1016.5
20260509142702 19 118 8.0 22.5 0.00 0.00 0.00 37 1016.3
20260509140800 20 59 9.7 22.5 0.00 0.00 0.00 38 1016.5
20260509134900 20 4 9.7 22.5 0.00 0.00 0.00 38 1016.5
20260509133000 20 149 12.9 22.5 0.00 0.00 0.00 37 1016.6
20260509131101 20 108 8.0 22.5 0.00 0.00 0.00 37 1016.7
20260509125200 19 41 1.6 22.5 0.00 0.00 0.00 37 1017.0
20260509123301 19 43 8.0 22.5 0.00 0.00 0.00 37 1017.1
20260509121401 19 28 0.0 20.9 0.00 0.00 0.00 39 1017.3
20260509115502 19 1 0.0 20.9 0.00 0.00 0.00 40 1017.5